Location: Unspecified
(34.4950°S, 58.5160°W)
Time: 14:44:10
(UTC+00:00)

BlueWalker 3 - Pass Details

Date: 14 February 2026
Orbit: 451 x 458 km, 53.2° (Epoch: 4 March)

Event Time Altitude Azimuth Distance (km) Brightness Sun altitude
Rises 07:29:10 0° 212° (SSW) 2,511 5.5 -22.7°
Reaches altitude 10° 07:31:54 10° 190° (S) 1,631 4.8 -22.3°
Maximum altitude 07:34:24 17° 148° (SSE) 1,251 4.7 -21.9°
Drops below altitude 10° 07:36:53 10° 105° (ESE) 1,623 5.5 -21.4°
Sets 07:39:36 0° 83° (E) 2,492 6.2 -21.0°
